TimeEDT,TemperatureF,Dew PointF,Humidity,Sea Level PressureIn,VisibilityMPH,Wind Direction,Wind SpeedMPH,Gust SpeedMPH,PrecipitationIn,Events,Conditions,WindDirDegrees,DateUTC
12:56 AM,37.0,30.0,76,30.09,-9999.0,Calm,Calm,-,N/A,,Unknown,0,2014-05-07 04:56:00
1:56 AM,44.1,28.0,53,30.09,-9999.0,Calm,Calm,-,N/A,,Unknown,0,2014-05-07 05:56:00
2:56 AM,44.1,27.0,51,30.08,-9999.0,Variable,4.6,-,N/A,,Unknown,0,2014-05-07 06:56:00
3:56 AM,44.1,26.1,49,30.09,-9999.0,Calm,Calm,-,N/A,,Unknown,0,2014-05-07 07:56:00
4:56 AM,45.0,25.0,46,30.08,-9999.0,SE,11.5,-,N/A,,Unknown,130,2014-05-07 08:56:00
5:56 AM,45.0,26.1,48,30.08,-9999.0,SE,10.4,17.3,N/A,,Unknown,130,2014-05-07 09:56:00
6:56 AM,44.1,25.0,47,30.09,-9999.0,SSE,12.7,21.9,N/A,,Unknown,150,2014-05-07 10:56:00
7:56 AM,44.1,25.0,47,30.10,-9999.0,SSE,10.4,18.4,N/A,,Unknown,150,2014-05-07 11:56:00
8:56 AM,46.9,25.0,42,30.12,-9999.0,SSE,10.4,20.7,N/A,,Unknown,160,2014-05-07 12:56:00
9:56 AM,50.0,25.0,38,30.12,-9999.0,SSE,6.9,19.6,N/A,,Unknown,160,2014-05-07 13:56:00
10:56 AM,55.0,26.1,33,30.10,-9999.0,SSE,12.7,21.9,N/A,,Unknown,150,2014-05-07 14:56:00
11:56 AM,57.9,28.0,32,30.06,-9999.0,ESE,10.4,18.4,N/A,,Unknown,120,2014-05-07 15:56:00
1:56 PM,62.1,28.9,29,30.04,-9999.0,SE,12.7,25.3,N/A,,Unknown,130,2014-05-07 17:56:00
2:56 PM,59.0,28.9,32,30.06,-9999.0,SSE,11.5,20.7,N/A,,Unknown,150,2014-05-07 18:56:00
3:56 PM,59.0,30.0,33,30.04,-9999.0,ESE,8.1,-,N/A,,Unknown,120,2014-05-07 19:56:00
4:56 PM,59.0,30.9,35,30.01,-9999.0,ESE,10.4,18.4,N/A,,Unknown,120,2014-05-07 20:56:00
5:56 PM,60.1,30.9,33,30.00,-9999.0,SSE,8.1,27.6,N/A,,Unknown,150,2014-05-07 21:56:00
6:56 PM,57.9,30.0,35,30.00,-9999.0,SE,12.7,23.0,N/A,,Unknown,130,2014-05-07 22:56:00
7:56 PM,57.0,28.0,33,30.01,-9999.0,SSE,15.0,24.2,N/A,,Unknown,160,2014-05-07 23:56:00
8:56 PM,53.1,26.1,35,30.01,-9999.0,SSE,11.5,20.7,N/A,,Unknown,150,2014-05-08 00:56:00
9:56 PM,51.1,26.1,38,29.99,-9999.0,SSE,6.9,-,N/A,,Unknown,150,2014-05-08 01:56:00
10:56 PM,50.0,27.0,41,29.96,-9999.0,Variable,6.9,17.3,N/A,,Unknown,0,2014-05-08 02:56:00
11:56 PM,48.9,27.0,43,29.97,-9999.0,South,11.5,18.4,N/A,,Unknown,170,2014-05-08 03:56:00